Home > Weather > Bülach > Past weeks

Flag for Switzerland Past Weather in Bülach, Zurich, Switzerland — Yesterday and Last 2 Weeks

Now
71 °F

Mild.


Feels Like: 72 °F
Forecast: 62 / 86 °F
Wind: 2 mph from Southeast

Location: Zurich-Kloten

Current Time: Aug 27, 2016 at 10:45:45 PM

Latest Report: Aug 27, 2016 at 10:00 PM


Visibility: N/A

Pressure: 30.02 "Hg

Humidity: 76%

Dew Point: 63 °F

Location of BülachLocation

Past Weather in Bülach — Graph

°F

Bülach Temperature Yesterday

Maximum temperature yesterday: 90 °F (at 5:00 PM)
Minimum temperature yesterday: 62 °F (at 3:00 AM)
Average temperature yesterday: 75 °F

High & Low Weather Summary for the Past Weeks

 TemperatureHumidityPressure
High90 °F (Aug 26, 5:00 PM)100% (Aug 26, 2:00 AM)30.40 "Hg (Aug 26, 2:00 AM)
Low49 °F (Aug 22, 5:00 AM)34% (Aug 26, 3:00 PM)29.79 "Hg (Aug 17, 7:00 PM)
Average68 °F75%30.08 "Hg
* Reported Aug 12 9:00 PM — Aug 27 9:00 PM, Bülach, Weather by CustomWeather, © 2016

Note: Actual official high and low records may vary slightly from our data, if they occured in-between our weather recording intervals... More about our weather records

Advertising

Bülach Weather History for the Previous 24 Hours

Scroll right to see more
 ConditionsComfort  
Time TempWeatherWind HumidityBarometerVisibility
9:00 PM
Sat, Aug 27
71 °FMild.3 mph75%30.01 "HgN/A
8:00 PM75 °FPartly sunny.3 mph72%29.99 "Hg22 mi
7:00 PM86 °FWarm.6 mph40%29.95 "HgN/A
6:00 PM88 °FHot.6 mph37%29.95 "HgN/A
5:00 PM88 °FPassing clouds.6 mph35%29.96 "Hg25 mi
4:00 PM88 °FHot.7 mph34%29.97 "HgN/A
3:00 PM88 °FHot.7 mph38%29.99 "HgN/A
2:00 PM87 °FPassing clouds.3 mph41%30.01 "Hg16 mi
1:00 PM82 °FWarm.1 mph54%30.03 "HgN/A
12:00 PM80 °FWarm.1 mph51%30.06 "HgN/A
11:00 AM77 °FPassing clouds.2 mph60%30.07 "Hg14 mi
10:00 AM74 °FMild.1 mph69%30.08 "HgN/A
9:00 AM68 °FMild.No wind87%30.09 "HgN/A
8:00 AM64 °FFog.1 mph96%30.09 "Hg6 mi
7:00 AM59 °FCool.No wind98%30.10 "HgN/A
6:00 AM60 °FCool.1 mph100%30.09 "HgN/A
5:00 AM61 °FFog.No wind97%30.09 "Hg12 mi
4:00 AM63 °FMild.1 mph95%30.09 "HgN/A
3:00 AM63 °FMild.1 mph95%30.09 "HgN/A
2:00 AM66 °FClear.1 mph91%30.09 "Hg16 mi
1:00 AM66 °FMild.1 mph90%30.08 "HgN/A
12:00 AM67 °FMild.No wind88%30.07 "HgN/A
11:00 PM
Fri, Aug 26
71 °FClear.No wind82%30.06 "Hg16 mi
10:00 PM73 °FMild.1 mph77%30.03 "HgN/A
Weather by CustomWeather, © 2016

See weather overviewHow to use our weather pages